Regional Weather Roundup
Issued by NWS

Home | Current Version | Previous Version | Graphics & Text | Print | Product List | Glossary On
Versions: 1 2 3 4 5 6 7 8 9 10 11 12 13 14 15 16 17 18 19 20 21 22 23 24 25 26 27 28 29 30 31 32 33 34 35 36 37 38 39 40 41 42 43 44 45 46 47 48 49 50
000
ASUS43 KMPX 282210
RWRMN
WEATHER ROUNDUP FOR MINNESOTA
NATIONAL WEATHER SERVICE TWIN CITIES/CHANHASSEN MN
500 PM CDT MON JUL 28 2014


NOTE: "FAIR" INDICATES FEW OR NO CLOUDS BELOW 12,000 FEET WITH NO
SIGNIFICANT WEATHER AND/OR OBSTRUCTIONS TO VISIBILITY. N/A MEANS
CURRENT SKY AND/OR WEATHER CONDITIONS ARE NOT AVAILABLE.

MNZ060>063-068>070-282300-
   Twin Cities Metro

CITY           SKY/WX    TMP DP  RH WIND       PRES   REMARKS
TWIN CITIES    MOSUNNY   77  52  41 W8G22     30.15F
ST PAUL        MOSUNNY   76  52  43 NW8       30.15F
CRYSTAL        MOSUNNY   77  51  40 W14       30.14F
BLAINE         MOSUNNY   77  54  44 NW10      30.15F
LAKEVILLE      MOSUNNY   73  54  49 W7        30.16F
EDEN PRAIRIE   PTSUNNY   76  53  44 NW8       30.15F
SOUTH ST PAUL  MOSUNNY   75  50  41 N5        30.15S
LAKE ELMO      CLOUDY    73  55  53 N6        30.16F
$$
MNZ001>005-007-008-013>017-022>024-027-028-282300-
   Northwest Minnesota

CITY           SKY/WX    TMP DP  RH WIND       PRES   REMARKS
BEMIDJI        MOSUNNY   73  52  48 NW12      30.20S
HALLOCK        MOSUNNY   75  54  46 N6        30.21S
ROSEAU         SUNNY     75  55  50 W5        30.18F
WARROAD        MOSUNNY   73  59  60 CALM      30.18F
THIEF RVR FALL MOSUNNY   72  52  49 W5        30.22S
CROOKSTON      SUNNY     73  52  46 N7        30.23S
FOSSTON        MOSUNNY   72  54  53 NW8       30.23S
DETROIT LAKES  MOSUNNY   72  52  49 NW13      30.24F
MOORHEAD       MOSUNNY   73  54  49 N6        30.23F
PARK RAPIDS    PTSUNNY   71  52  50 N9        30.21S
$$
MNZ006-009>011-018-025>026-282300-
   North Central Minnesota

CITY           SKY/WX    TMP DP  RH WIND       PRES   REMARKS
BAUDETTE       SUNNY     75  54  47 NW9       30.18F
FLAG ISLAND    SUNNY     73  54  49 NW8       30.15F
INTL FALLS     PTSUNNY   74  55  51 NW9       30.13F
WASKISH        SUNNY     75  55  50 CALM      30.17F
BIG FORK       MOSUNNY   73  54  49 NW3       30.16F
LONGVILLE      SUNNY     72  55  56 NW3       30.19S
GRAND RAPIDS   SUNNY     73  52  46 NW9       30.16F
CRANE LAKE     MOSUNNY   72  55  56 NW9       30.13F
ORR            MOSUNNY   73  50  43 NW8       30.11F
COOK           MOSUNNY   73  54  49 W8        30.13F
$$
MNZ012-019>021-037-282300-
   Northeast Minnesota

CITY           SKY/WX    TMP DP  RH WIND       PRES   REMARKS
DULUTH         PTSUNNY   73  54  51 NW8       30.13S
ELY            MOSUNNY   70  54  56 NW13G21   30.11F
HIBBING        PTSUNNY   76  54  46 NW13G21   30.14F
EVELETH        PTSUNNY   72  52  49 NW12G17   30.14F
DULUTH HARBOR  MOSUNNY   75  54  46 NW8       30.11S
TWO HARBORS    MOSUNNY   72  55  56 NW3       30.09F
SILVER BAY     MOSUNNY   72  57  60 NW7       30.07F
GRAND MARAIS     N/A     72  58  61 N8        30.03F
G MARAIS ARPRT MOSUNNY   66  54  63 NW5       30.09S
$$
MNZ029>031-032-039>041-046>048-054>057-064-282300-
   West Central Minnesota

CITY           SKY/WX    TMP DP  RH WIND       PRES   REMARKS
FERGUS FALLS   PTSUNNY   72  46  40 N8        30.22F
WHEATON        MOSUNNY   70  52  52 W7        30.26S
MORRIS         PTSUNNY   72  54  53 NW9       30.22F
ALEXANDRIA     SUNNY     74  51  44 NW13      30.23F
ELBOW LAKE     FAIR      72  54  53 NW8       30.22F
WADENA         MOSUNNY   72  55  56 N10G17    30.21S
GLENWOOD       MOSUNNY   73  50  43 NW9G16    30.22F
APPLETON       CLOUDY    75  52  43 W10       30.23S
BENSON         PTSUNNY   75  54  46 N9        30.22F
ORTONVILLE     CLOUDY    72  48  43 N8        30.24F
MADISON        MOSUNNY   73  54  49 NW10      30.24F
WILLMAR        FAIR      75  50  41 NW10      30.22F
$$
MNZ033>034-036-042>043-049>051-058-059-282300-
   Central Minnesota

CITY           SKY/WX    TMP DP  RH WIND       PRES   REMARKS
ST CLOUD       PTSUNNY   78  50  37 NW10      30.17S
SAUK CENTRE    FAIR      73  53  49 W7        30.21S
PAYNESVILLE    MOSUNNY   73  48  40 W8        30.20F
AITKIN         PTSUNNY   75  57  53 NW5       30.16S
PINE RIVER     SUNNY     73  52  46 N9        30.21F
BRAINERD       SUNNY     73  53  49 N12       30.18F
STAPLES        SUNNY     73  52  46 NW6       30.20S
LONG PRAIRIE   PTSUNNY   72  52  49 NW13      30.21S
LITTLE FALLS   PTSUNNY   72  50  46 N7        30.19S
LITCHFIELD     MOSUNNY   75  54  46 NW7       30.19F
BUFFALO        MOSUNNY   76  51  41 W8        30.18F
MAPLE LAKE     MOSUNNY   75  56  50 NW6       30.19S
$$
MNZ037-044-045-052-053-282300-
   East Central Minnesota

CITY           SKY/WX    TMP DP  RH WIND       PRES   REMARKS
PRINCETON      MOSUNNY   77  52  41 N8G17     30.17S
MORA           MOSUNNY   70  52  52 NW5       30.17F
CAMBRIDGE      SUNNY     79  55  44 NW9       30.14S
RUSH CITY      SUNNY     74  51  44 N6        30.15F
MOOSE LAKE     SUNNY     73  50  43 NW7       30.13F
HINCKLEY       FAIR      73  54  49 N5        30.15S
CLOQUET        PTSUNNY   73  48  40 NW9G16    30.14S
MCGREGOR       SUNNY     72  54  53 NW7       30.16F
$$
MNZ071>073-080-081-089-090-097-098-282300-
   Southwest Minnesota

CITY           SKY/WX    TMP DP  RH WIND       PRES   REMARKS
MONTEVIDEO     PTSUNNY   75  52  43 NE10G16   30.23F
GRANITE FALLS  PTSUNNY   73  54  51 W12       30.24S
CANBY          CLOUDY    71  51  49 N8        30.26S HAZE
MARSHALL       PTSUNNY   72  52  49 N12       30.22F
REDWOOD FALLS  CLOUDY    76  51  41 NW8       30.21S
OLIVIA         MOSUNNY   73  52  46 NW10      30.21S
PIPESTONE      PTSUNNY   72  52  49 N8        30.24F
WINDOM         MOSUNNY   72  54  53 N10       30.23S
WORTHINGTON    MOSUNNY   72  54  53 N10       30.24F
JACKSON        CLOUDY    70  54  56 N6        30.23S
TRACY          SUNNY     73  55  53 N7        30.23F
SLAYTON        MOSUNNY   72  53  52 CALM      30.25S
$$
MNZ065>067-074>077-082>085-091>093-282300-
   South Central Minnesota

CITY           SKY/WX    TMP DP  RH WIND       PRES   REMARKS
MANKATO        MOSUNNY   73  50  43 N13       30.19S
NEW ULM        SUNNY     73  54  49 N13       30.19S
ST JAMES       MOSUNNY   75  52  43 NW10      30.22S
FAIRMONT       MOSUNNY   73  54  49 NW9       30.20F
GLENCOE        SUNNY     75  51  42 NW10      30.17F
FARIBAULT      MOSUNNY   75  46  35 NW5       30.18S
OWATONNA       PTSUNNY   73  52  46 NW8       30.18S
WASECA         PTSUNNY   72  50  46 NW5       30.20F
ALBERT LEA     CLOUDY    72  54  53 NW6       30.19S
$$
MNZ078>079-086>088-094>096-282300-
   Southeast Minnesota

CITY           SKY/WX    TMP DP  RH WIND       PRES   REMARKS
ROCHESTER      PTSUNNY   74  51  44 NW10      30.18F
RED WING       PTSUNNY   75  48  38 N6        30.14S
STANTON        MOSUNNY   75  49  39 NW8       30.15S
DODGE CENTER   MOSUNNY   72  55  56 N6        30.18S
WINONA         SUNNY     73  48  40 NW7       30.14F
AUSTIN         PTSUNNY   72  52  49 N7        30.17F
PRESTON        PTSUNNY   68  58  71 NW6       30.18S
$$
ABBREVIATIONS USED IN REMARKS
   TC - TEMPERATURES IN CELSIUS
  WCI - WIND CHILL INDEX
   HX - HEAT INDEX
  VSB - VISIBILITY
$$


USA.gov is the U.S. government's official web portal to all federal, state and local government web resources and services.